[[{"header":{"parameterUnit":"m.s-1","parameterCategory":1,"la1":30.2991,"la2":30.254,"lo1":-89.0895,"lo2":-89.0444,"dy":0.0017,"dx":0.0017,"nx":28,"ny":28,"refTime":"2025-02-28T03:00:00:Z","depth":0,"parameterNumber":2,"parameterNumberName":"U-component_of_WINDS"},"data":[0,0,0,0,0,0,0,0,0,0,0,0,0,0,0,0,0,0,0,0,0,0,0,0,0,0,0,0,0,0,0,0,0,0,0,0,0,0,0,0,0,0,0,0,0,0,0,0,0,0,0,0,0,0,0,0,0,0,1.9279,1.928,0,1.9325,1.9326,1.9326,1.932,1.9319,1.9319,1.9318,1.937,1.9372,1.9374,0,0,0,0,0,0,0,0,0,0,0,0,0,1.9191,1.9193,1.9279,1.928,1.928,1.9325,1.9326,1.9326,1.932,1.9319,1.9318,1.9317,1.9369,1.9371,1.9374,0,0,0,0,0,0,0,0,0,0,0,0,0,1.9233,1.9193,1.9279,1.9282,1.9283,1.9325,1.9326,1.9327,1.932,1.9319,1.9318,1.9317,1.9368,1.9371,1.9374,1.9417,0,0,1.9384,1.9385,0,0,0,0,0,0,0,0,1.923,1.9236,1.9281,1.9282,1.9283,1.9316,1.9314,1.9357,1.9321,1.9306,1.9318,1.9316,1.9353,1.9357,1.9369,1.9419,1.9421,1.9384,1.9386,1.9387,1.9388,0,0,0,0,0,0,0,1.9227,1.9234,1.9297,1.9282,1.9283,1.9284,1.9288,1.9322,1.9336,1.9308,1.9307,1.9313,1.9353,1.9365,1.937,1.9422,1.9384,1.9387,1.9389,1.939,1.9513,1.9514,0,0,0,0,0,0,1.9223,1.9232,1.9296,1.9299,1.9253,1.9286,1.9291,1.9306,1.9335,1.9338,1.9313,1.9312,1.9361,1.9366,1.9371,1.9425,1.9387,1.939,1.9392,1.9512,1.9513,1.9515,0,0,0,0,0,0,1.9221,1.9229,1.9294,1.9265,1.9273,1.9289,1.9306,1.9308,1.932,1.934,1.9343,1.9323,1.936,1.9367,1.9406,1.9426,1.9392,1.9395,1.951,1.9512,1.9514,1.953,0,0,0,0,0,0,1.9219,1.9228,1.9243,1.9265,1.9275,1.9326,1.9307,1.931,1.9325,1.9324,1.935,1.9353,1.936,1.9401,1.9409,1.943,1.9397,1.9508,1.9511,1.9513,1.9528,1.9533,1.9537,0,0,0,0,0,1.9215,1.9246,1.9244,1.9252,1.9294,1.9327,1.9333,1.9339,1.9327,1.9343,1.9356,1.9352,1.9423,1.9405,1.9414,1.9436,1.9507,1.951,1.9513,1.9526,1.9532,1.9537,0,0,0,0,0,0,1.9227,1.9249,1.9247,1.9285,1.9304,1.9326,1.9346,1.9344,1.9368,1.9366,1.9374,1.938,1.9419,1.9432,1.9412,1.948,1.9464,1.9469,1.947,1.9476,1.948,1.9477,1.94,0,0,0,0,0,1.9233,1.9257,1.9276,1.9309,1.9318,1.9331,1.9345,1.9348,1.9369,1.9377,1.9393,1.9414,1.9442,1.946,1.9486,1.953,1.9537,1.955,1.9554,1.9558,1.9562,1.9589,1.9595,1.9525,1.9525,1.9525,0,0,1.9248,1.9263,1.9278,1.9311,1.9326,1.9353,1.9337,1.9365,1.9385,1.9382,1.9419,1.9432,1.9457,1.9499,1.9518,1.9511,1.9583,1.9562,1.9564,1.9567,1.9592,1.9599,1.9605,1.9527,1.9527,1.9526,0,0,1.9288,1.9301,1.933,1.9346,1.9369,1.9377,1.9384,1.9407,1.9415,1.9452,1.945,1.9476,1.9522,1.954,1.9555,1.9605,1.9603,1.9613,1.9636,1.9662,1.9667,1.9672,1.9691,1.9698,1.9617,1.9617,1.9617,0,1.9304,1.9341,1.9346,1.9375,1.939,1.9388,1.9418,1.9434,1.9464,1.9476,1.9467,1.9526,1.9542,1.959,1.9602,1.9614,1.9624,1.961,1.9666,1.9671,1.9675,1.9694,1.9701,1.9619,1.9618,1.9618,1.9618,0,1.936,1.9387,1.9408,1.9437,1.9455,1.9484,1.9496,1.9514,1.9516,1.9526,1.9566,1.9585,1.9616,1.9628,1.963,1.9676,1.9671,1.9663,1.9647,1.9683,1.97,1.9707,1.962,1.962,1.9619,1.9619,0,0,1.9407,1.9439,1.9447,1.9461,1.9487,1.9508,1.9539,1.9568,1.9584,1.9606,1.9634,1.9674,1.9668,1.9685,1.969,1.9712,1.9752,1.9703,1.9703,1.9712,1.9806,1.9812,1.9819,1.9751,1.9752,1.9753,1.9804,0,1.945,1.9503,1.9509,1.9557,1.9582,1.9581,1.9609,1.9629,1.9639,1.9664,1.9677,1.9706,1.9695,1.9706,1.9728,1.9742,1.9771,1.9739,1.9778,1.978,1.9772,1.9828,1.9834,1.9881,1.9811,1.9812,1.9813,0,1.9507,1.953,1.958,1.9604,1.9615,1.9639,1.9667,1.9691,1.9714,1.9721,1.9741,1.9744,1.9778,1.976,1.9808,1.9786,1.9803,1.9813,1.9815,1.9819,1.9799,1.9835,1.9896,1.9903,1.9823,1.9823,1.9822,0,1.9538,1.9581,1.9617,1.9629,1.9658,1.9675,1.9688,1.9711,1.9728,1.9754,1.9766,1.9795,1.9812,1.9836,1.9847,1.9832,1.9895,1.9878,1.9903,1.9903,1.9916,1.9915,1.9982,1.9926,1.9926,1.9926,1.9926,0,1.9586,1.9616,1.9632,1.9654,1.9689,1.9697,1.9733,1.9745,1.9766,1.9792,1.9794,1.9818,1.9831,1.9859,1.9869,1.9908,1.9915,1.9923,1.9925,1.9923,1.9922,1.9934,1.9932,1.9928,1.9928,1.9927,1.9927,0,1.9625,1.9637,1.9676,1.97,1.9707,1.9732,1.9754,1.9777,1.9788,1.9821,1.983,1.9848,1.9881,1.9894,1.9935,1.9941,1.9987,1.9986,1.9978,1.9979,2.0004,2.0002,2.0081,2.0092,2.0029,2.003,2.003,0,1.9655,1.9679,1.9706,1.9723,1.9736,1.9764,1.9782,1.9792,1.9811,1.9841,1.9861,1.9893,1.992,1.9973,1.9991,2.0022,2.0023,2.0049,2.0028,2.0025,2.0025,2.0023,2.0026,2.0052,2.0053,2.0053,2.0054,0,1.9707,1.9712,1.9737,1.9765,1.9787,1.981,1.9832,1.9846,1.986,1.9882,1.9915,1.9936,1.9977,2.001,2.0043,2.0059,2.006,2.006,2.0068,2.0066,2.0061,2.0065,1.9989,2.0058,2.0058,2.0058,2.0057,2.0057,1.9743,1.9765,1.9787,1.9816,1.9834,1.9856,1.9879,1.9893,1.992,1.9954,1.9959,1.9995,2.002,2.0064,2.0082,2.0111,2.0105,2.0116,2.0119,2.0121,2.0123,2.0056,2.0117,2.0117,2.0117,2.0117,2.0117,0,1.9795,1.981,1.9837,1.9868,1.9892,1.989,1.9915,1.9935,1.9966,1.999,2.0016,2.0055,2.0087,2.0109,2.0142,2.0162,2.0163,2.017,2.0169,2.0173,2.0127,2.0117,2.0169,2.0169,2.0169,2.0169,2.0169,2.0169,1.9825,1.9862,1.9871,1.9918,1.9933,1.9967,1.9982,2.0003,2.0021,2.0065,2.0091,2.0105,2.0128,2.0163,2.0194,2.02,2.0212,2.022,2.0225,2.0182,2.0176,2.0171,2.0162,2.0223,2.0223,2.027,2.027,2.027]},{"header":{"parameterUnit":"m.s-1","parameterCategory":1,"la1":30.2991,"la2":30.254,"lo1":-89.0895,"lo2":-89.0444,"dy":0.0017,"dx":0.0017,"nx":28,"ny":28,"refTime":"2025-02-28T03:00:00:Z","depth":0,"parameterNumber":3,"parameterNumberName":"V-component_of_WINDS"},"data":[0,0,0,0,0,0,0,0,0,0,0,0,0,0,0,0,0,0,0,0,0,0,0,0,0,0,0,0,0,0,0,0,0,0,0,0,0,0,0,0,0,0,0,0,0,0,0,0,0,0,0,0,0,0,0,0,0,0,2.7427,2.7428,0,2.7572,2.7573,2.7575,2.7571,2.7569,2.7567,2.7565,2.7711,2.7716,2.7722,0,0,0,0,0,0,0,0,0,0,0,0,0,2.7139,2.7144,2.7427,2.7429,2.743,2.7571,2.7573,2.7575,2.7572,2.7569,2.7567,2.7565,2.7709,2.7716,2.7722,0,0,0,0,0,0,0,0,0,0,0,0,0,2.7272,2.7146,2.7426,2.7446,2.7449,2.7571,2.7573,2.7576,2.7572,2.7569,2.7566,2.7563,2.7707,2.7715,2.7723,2.7835,0,0,2.7749,2.7753,0,0,0,0,0,0,0,0,2.7264,2.7282,2.7441,2.7445,2.7448,2.755,2.7525,2.7663,2.7573,2.7525,2.7565,2.7562,2.766,2.7672,2.7705,2.7842,2.7848,2.775,2.7755,2.7759,2.7761,0,0,0,0,0,0,0,2.7255,2.7276,2.7484,2.7443,2.7448,2.7444,2.746,2.7551,2.7607,2.7529,2.7529,2.7546,2.7661,2.7697,2.7709,2.785,2.775,2.7758,2.7763,2.7766,2.8077,2.808,0,0,0,0,0,0,2.7243,2.7269,2.7479,2.7488,2.7347,2.7452,2.7469,2.7521,2.7606,2.7616,2.7549,2.7546,2.7684,2.7699,2.7714,2.7845,2.7759,2.7767,2.7772,2.8074,2.8078,2.8081,0,0,0,0,0,0,2.7237,2.7262,2.7474,2.7378,2.7405,2.746,2.7517,2.7525,2.7561,2.7621,2.763,2.7576,2.7682,2.7702,2.7803,2.785,2.7771,2.7779,2.807,2.8075,2.8079,2.8112,0,0,0,0,0,0,2.7228,2.726,2.7305,2.738,2.741,2.7563,2.7521,2.753,2.7576,2.7574,2.7649,2.7659,2.7681,2.779,2.7812,2.7861,2.7785,2.8066,2.8072,2.8078,2.8107,2.8117,2.8126,0,0,0,0,0,2.7218,2.731,2.7308,2.7333,2.7469,2.7566,2.7584,2.7609,2.758,2.7624,2.7661,2.7656,2.7842,2.7801,2.7825,2.7877,2.8063,2.8071,2.8077,2.8103,2.8115,2.8126,0,0,0,0,0,0,2.7241,2.732,2.7319,2.7438,2.7495,2.7566,2.7623,2.7622,2.7689,2.7684,2.7711,2.7727,2.7828,2.7863,2.7816,2.7985,2.7948,2.796,2.7959,2.7972,2.7981,2.797,2.7792,0,0,0,0,0,2.7259,2.7333,2.7398,2.7497,2.7525,2.7569,2.7612,2.7626,2.7686,2.7711,2.7756,2.7813,2.7883,2.793,2.7998,2.8111,2.8125,2.8158,2.8168,2.8175,2.8185,2.8241,2.8255,2.8104,2.8104,2.8104,0,0,2.7299,2.7351,2.7397,2.7502,2.7549,2.7621,2.759,2.767,2.7723,2.7723,2.7821,2.7855,2.792,2.8026,2.8075,2.8058,2.8229,2.8184,2.819,2.8196,2.825,2.8264,2.8276,2.8109,2.8108,2.8107,0,0,2.7408,2.7457,2.7541,2.7587,2.7656,2.7683,2.7703,2.7772,2.7795,2.7893,2.7892,2.7954,2.8077,2.8121,2.816,2.8277,2.8272,2.8298,2.8348,2.8402,2.8414,2.8424,2.8462,2.8475,2.8308,2.8308,2.8308,0,2.7448,2.7561,2.7585,2.7664,2.7707,2.7708,2.779,2.7833,2.7922,2.795,2.793,2.8079,2.8123,2.8236,2.8264,2.8297,2.8317,2.829,2.841,2.8421,2.8431,2.8467,2.8482,2.831,2.831,2.831,2.831,0,2.7604,2.7681,2.774,2.7823,2.7873,2.7954,2.7987,2.8034,2.8041,2.8069,2.8165,2.8217,2.8293,2.8321,2.833,2.8433,2.842,2.8405,2.8368,2.8448,2.8481,2.8496,2.8314,2.8313,2.8312,2.8312,0,0,2.7736,2.7826,2.7847,2.7882,2.7955,2.8013,2.8091,2.8165,2.8202,2.8261,2.8324,2.8424,2.8408,2.8451,2.8464,2.8512,2.8594,2.849,2.8492,2.8505,2.8705,2.8715,2.8731,2.8592,2.8594,2.8597,2.8698,0,2.785,2.7989,2.8009,2.8131,2.8198,2.8196,2.8263,2.8312,2.8339,2.8398,2.8426,2.8494,2.8471,2.8496,2.8543,2.8575,2.8635,2.8568,2.8647,2.865,2.8629,2.875,2.8762,2.8856,2.8712,2.8715,2.8716,0,2.8003,2.8063,2.8191,2.8248,2.8277,2.8337,2.8402,2.846,2.8514,2.8529,2.8574,2.8579,2.8655,2.8614,2.8716,2.8669,2.8702,2.8722,2.8726,2.8733,2.8687,2.8757,2.8887,2.89,2.8738,2.8737,2.8735,0,2.8081,2.8194,2.8284,2.8314,2.8384,2.8425,2.8456,2.8507,2.8547,2.8603,2.8629,2.8693,2.8728,2.8776,2.8796,2.8766,2.8895,2.8857,2.8906,2.8905,2.8934,2.8932,2.9068,2.8958,2.8958,2.8958,2.8957,0,2.8206,2.8283,2.8319,2.8374,2.8458,2.8478,2.856,2.8589,2.8632,2.869,2.8692,2.8745,2.877,2.8826,2.8842,2.892,2.8937,2.8948,2.8952,2.8948,2.8946,2.8969,2.8962,2.8961,2.8961,2.896,2.8959,0,2.8309,2.8336,2.8432,2.8489,2.8504,2.8563,2.861,2.8661,2.8683,2.8756,2.8774,2.881,2.8875,2.8899,2.898,2.899,2.9079,2.9079,2.9061,2.9062,2.9108,2.9102,2.9263,2.9283,2.9162,2.9163,2.9164,0,2.8386,2.8444,2.8505,2.8543,2.8575,2.8637,2.8677,2.8697,2.8738,2.8799,2.8841,2.8906,2.8959,2.9062,2.9093,2.9153,2.9152,2.9203,2.9161,2.9152,2.9148,2.9144,2.9147,2.9211,2.9213,2.9214,2.9214,0,2.8518,2.8527,2.8585,2.8646,2.8694,2.8743,2.8791,2.8821,2.8847,2.8892,2.8958,2.8999,2.9078,2.914,2.92,2.9228,2.9224,2.9227,2.9241,2.9237,2.9223,2.9227,2.908,2.9224,2.9223,2.9222,2.9222,2.9221,2.8608,2.8658,2.8706,2.8769,2.8806,2.8849,2.8897,2.8924,2.898,2.9046,2.9053,2.9122,2.9167,2.9247,2.9277,2.9329,2.9315,2.9336,2.9341,2.9346,2.9347,2.9215,2.934,2.934,2.934,2.934,2.9339,0,2.8738,2.8767,2.8825,2.8889,2.8937,2.8928,2.8978,2.9018,2.908,2.9122,2.9172,2.9244,2.9303,2.9337,2.9395,2.9429,2.9428,2.9443,2.944,2.9446,2.9358,2.9339,2.9443,2.9443,2.9443,2.9443,2.9443,2.9443,2.8811,2.8892,2.8905,2.9002,2.9031,2.9099,2.9127,2.9165,2.9198,2.9278,2.9327,2.9348,2.9385,2.9444,2.9496,2.9504,2.9524,2.954,2.9546,2.9464,2.9453,2.9443,2.9424,2.9545,2.9545,2.9629,2.963,2.963]}]]